When you browse on this site, cookies collect data to enhance your experience and personalize the content and advertising you see.
Visit our Privacy Policy to learn more. By continuing to use the site, you agree to this use of cookies and data.
  • In United Kingdom
  • List of Countries
  • For 7 days
  • Water Temperature
  • Satellite Maps
  • Weather Map
  • Weather Widgets
  • user-avatar
    Login

    Hourly Weather Santa Maria Huazolotitlan

    Today, 20 March, Wednesday

    Time Temperature Precipitation Wind Pressure Humidity
    00:00 +25°C° 0.2 mm 1 mps 738 mmHg 84%
    01:00 +25°C° 0.2 mm 1 mps 738 mmHg 84%
    02:00 +25°C° 0.2 mm 1 mps 737 mmHg 85%
    03:00 +25°C° 0 mm 1 mps 737 mmHg 84%
    04:00 +24°C° 0 mm 1 mps 738 mmHg 84%
    05:00 +24°C° 0 mm 1 mps 738 mmHg 87%
    06:00 +27°C° 0 mm 1 mps 738 mmHg 76%
    07:00 +29°C° 0 mm 1 mps 738 mmHg 66%
    08:00 +29°C° 0 mm 0 mps 739 mmHg 55%
    09:00 +33°C° 0 mm 1 mps 739 mmHg 48%
    10:00 +35°C° 0 mm 2 mps 738 mmHg 42%
    11:00 +37°C° 0 mm 2 mps 738 mmHg 35%
    12:00 +37°C° 0 mm 3 mps 738 mmHg 36%
    13:00 +36°C° 0 mm 3 mps 737 mmHg 37%
    14:00 +36°C° 0 mm 4 mps 736 mmHg 39%
    15:00 +34°C° 0 mm 4 mps 736 mmHg 42%
    16:00 +33°C° 0 mm 3 mps 736 mmHg 46%
    17:00 +31°C° 0 mm 3 mps 736 mmHg 50%
    18:00 +29°C° 0 mm 2 mps 737 mmHg 56%
    19:00 +28°C° 0 mm 1 mps 737 mmHg 63%
    20:00 +24°C° 0 mm 0 mps 738 mmHg 69%
    21:00 +26°C° 0 mm 1 mps 738 mmHg 69%
    22:00 +26°C° 0 mm 1 mps 738 mmHg 69%
    23:00 +26°C° 0 mm 1 mps 738 mmHg 69%

    Tomorrow, 21 March, Thursday

    Time Temperature Precipitation Wind Pressure Humidity
    00:00 +25°C° 0 mm 1 mps 738 mmHg 68%
    01:00 +25°C° 0 mm 1 mps 738 mmHg 67%
    02:00 +25°C° 0 mm 1 mps 737 mmHg 66%
    03:00 +25°C° 0 mm 1 mps 737 mmHg 66%
    04:00 +25°C° 0 mm 1 mps 737 mmHg 65%
    05:00 +25°C° 0 mm 1 mps 737 mmHg 64%
    06:00 +27°C° 0 mm 1 mps 738 mmHg 56%
    07:00 +28°C° 0 mm 0 mps 738 mmHg 48%
    08:00 +31°C° 0 mm 0 mps 739 mmHg 40%
    09:00 +34°C° 0 mm 1 mps 739 mmHg 37%
    10:00 +36°C° 0 mm 2 mps 739 mmHg 34%
    11:00 +37°C° 0 mm 3 mps 739 mmHg 31%
    12:00 +37°C° 0 mm 3 mps 738 mmHg 32%
    13:00 +37°C° 0 mm 4 mps 737 mmHg 34%
    14:00 +36°C° 0 mm 4 mps 736 mmHg 35%
    15:00 +35°C° 0 mm 4 mps 736 mmHg 40%
    16:00 +33°C° 0 mm 3 mps 736 mmHg 44%
    17:00 +31°C° 0 mm 3 mps 736 mmHg 49%
    18:00 +30°C° 0 mm 2 mps 737 mmHg 56%
    19:00 +28°C° 0 mm 1 mps 738 mmHg 63%
    20:00 +25°C° 0 mm 0 mps 738 mmHg 70%
    21:00 +27°C° 0 mm 1 mps 739 mmHg 69%
    22:00 +27°C° 0 mm 1 mps 739 mmHg 68%
    23:00 +27°C° 0 mm 1 mps 739 mmHg 67%

    Day after tomorrow, 22 March, Friday

    Time Temperature Precipitation Wind Pressure Humidity
    00:00 +27°C° 0 mm 1 mps 739 mmHg 67%
    01:00 +26°C° 0 mm 1 mps 738 mmHg 67%
    02:00 +26°C° 0 mm 1 mps 738 mmHg 67%
    03:00 +26°C° 0 mm 1 mps 738 mmHg 65%
    04:00 +25°C° 0 mm 1 mps 738 mmHg 63%
    05:00 +25°C° 0 mm 1 mps 738 mmHg 61%
    06:00 +28°C° 0 mm 1 mps 738 mmHg 53%
    07:00 +30°C° 0 mm 1 mps 739 mmHg 45%
    08:00 +33°C° 0 mm 1 mps 739 mmHg 37%
    09:00 +34°C° 0 mm 1 mps 739 mmHg 34%
    10:00 +37°C° 0 mm 2 mps 739 mmHg 32%
    11:00 +38°C° 0 mm 2 mps 739 mmHg 29%
    12:00 +38°C° 0 mm 3 mps 738 mmHg 31%
    13:00 +37°C° 0 mm 4 mps 737 mmHg 33%
    14:00 +37°C° 0 mm 4 mps 736 mmHg 36%
    15:00 +35°C° 0 mm 4 mps 736 mmHg 40%
    16:00 +34°C° 0 mm 3 mps 736 mmHg 45%
    17:00 +31°C° 0 mm 3 mps 736 mmHg 49%
    18:00 +30°C° 0 mm 2 mps 737 mmHg 56%
    19:00 +28°C° 0 mm 1 mps 738 mmHg 62%
    20:00 +25°C° 0 mm 0 mps 738 mmHg 69%
    21:00 +25°C° 0 mm 0 mps 739 mmHg 70%
    22:00 +24°C° 0 mm 0 mps 739 mmHg 71%
    23:00 +24°C° 0 mm 0 mps 739 mmHg 72%

    23 March, Saturday

    Time Temperature Precipitation Wind Pressure Humidity
    00:00 +26°C° 0 mm 1 mps 739 mmHg 72%
    01:00 +25°C° 0 mm 1 mps 738 mmHg 72%
    02:00 +25°C° 0 mm 1 mps 737 mmHg 72%
    03:00 +25°C° 0 mm 1 mps 738 mmHg 71%
    04:00 +25°C° 0 mm 1 mps 738 mmHg 69%
    05:00 +24°C° 0 mm 1 mps 738 mmHg 68%
    06:00 +27°C° 0 mm 1 mps 738 mmHg 59%
    07:00 +30°C° 0 mm 1 mps 739 mmHg 50%
    08:00 +32°C° 0 mm 1 mps 740 mmHg 41%
    09:00 +34°C° 0 mm 1 mps 739 mmHg 36%
    10:00 +36°C° 0 mm 2 mps 739 mmHg 32%
    11:00 +38°C° 0 mm 3 mps 739 mmHg 28%
    12:00 +38°C° 0 mm 3 mps 738 mmHg 29%
    13:00 +37°C° 0 mm 4 mps 737 mmHg 30%
    14:00 +37°C° 0 mm 5 mps 736 mmHg 31%
    15:00 +36°C° 0 mm 4 mps 736 mmHg 36%
    16:00 +34°C° 0 mm 3 mps 736 mmHg 40%
    17:00 +33°C° 0 mm 3 mps 736 mmHg 45%
    18:00 +30°C° 0 mm 2 mps 737 mmHg 53%
    19:00 +28°C° 0 mm 1 mps 738 mmHg 61%
    20:00 +25°C° 0 mm 0 mps 738 mmHg 68%
    21:00 +24°C° 0 mm 0 mps 738 mmHg 69%
    22:00 +26°C° 0 mm 1 mps 739 mmHg 70%
    23:00 +26°C° 0 mm 1 mps 739 mmHg 70%

    24 March, Sunday

    Time Temperature Precipitation Wind Pressure Humidity
    00:00 +26°C° 0 mm 1 mps 738 mmHg 69%
    01:00 +25°C° 0 mm 1 mps 738 mmHg 68%
    02:00 +25°C° 0 mm 1 mps 737 mmHg 67%
    03:00 +25°C° 0 mm 1 mps 737 mmHg 66%
    04:00 +25°C° 0 mm 1 mps 738 mmHg 65%
    05:00 +24°C° 0 mm 1 mps 738 mmHg 64%
    06:00 +27°C° 0 mm 1 mps 738 mmHg 57%
    07:00 +28°C° 0 mm 0 mps 739 mmHg 49%
    08:00 +30°C° 0 mm 0 mps 739 mmHg 42%
    09:00 +34°C° 0 mm 1 mps 739 mmHg 38%
    10:00 +36°C° 0 mm 2 mps 739 mmHg 35%
    11:00 +37°C° 0 mm 3 mps 738 mmHg 31%
    12:00 +37°C° 0 mm 3 mps 737 mmHg 32%
    13:00 +37°C° 0 mm 4 mps 737 mmHg 34%
    14:00 +37°C° 0 mm 4 mps 736 mmHg 35%
    15:00 +35°C° 0 mm 4 mps 736 mmHg 40%
    16:00 +34°C° 0 mm 3 mps 736 mmHg 45%
    17:00 +31°C° 0 mm 2 mps 736 mmHg 50%
    18:00 +30°C° 0 mm 2 mps 736 mmHg 57%
    19:00 +28°C° 0 mm 1 mps 737 mmHg 63%
    20:00 +27°C° 0 mm 1 mps 738 mmHg 70%
    21:00 +27°C° 0 mm 1 mps 738 mmHg 71%
    22:00 +26°C° 0 mm 1 mps 738 mmHg 71%
    23:00 +26°C° 0 mm 1 mps 738 mmHg 72%

    25 March, Monday

    Time Temperature Precipitation Wind Pressure Humidity
    00:00 +26°C° 0 mm 1 mps 737 mmHg 71%
    01:00 +26°C° 0 mm 1 mps 737 mmHg 70%
    02:00 +25°C° 0 mm 1 mps 736 mmHg 69%
    03:00 +25°C° 0 mm 1 mps 736 mmHg 68%
    04:00 +25°C° 0 mm 1 mps 737 mmHg 67%
    05:00 +25°C° 0 mm 1 mps 737 mmHg 65%
    06:00 +28°C° 0 mm 1 mps 737 mmHg 57%
    07:00 +29°C° 0 mm 0 mps 738 mmHg 49%
    08:00 +31°C° 0 mm 0 mps 738 mmHg 40%
    09:00 +35°C° 0 mm 1 mps 738 mmHg 37%
    10:00 +37°C° 0 mm 2 mps 738 mmHg 34%
    11:00 +38°C° 0 mm 3 mps 737 mmHg 31%
    12:00 +38°C° 0 mm 3 mps 736 mmHg 32%
    13:00 +37°C° 0 mm 4 mps 735 mmHg 32%
    14:00 +37°C° 0 mm 4 mps 735 mmHg 33%
    15:00 +36°C° 0 mm 3 mps 735 mmHg 37%
    16:00 +34°C° 0 mm 3 mps 735 mmHg 41%
    17:00 +32°C° 0 mm 2 mps 735 mmHg 44%
    18:00 +30°C° 0 mm 1 mps 735 mmHg 52%
    19:00 +28°C° 0 mm 1 mps 736 mmHg 59%
    20:00 +25°C° 0 mm 0 mps 737 mmHg 66%
    21:00 +24°C° 0 mm 0 mps 737 mmHg 68%
    22:00 +24°C° 0 mm 0 mps 737 mmHg 69%
    23:00 +26°C° 0 mm 1 mps 737 mmHg 71%
    Show more